User: anonymous   Login
Location: Unspecified
(0.0000°N, 0.0000°E)
Time: 01:26:03
(UTC+00:00)
Language:

Vanguard 2 - Orbit

View from above orbital plane
View from above orbital plane
View from above satellite
View from above satellite

Ground track
Ground track

The orbit data is extracted from the following two-line orbital elements,

1    11U 59001A   19145.85699336 -.00000005  00000-0 -21773-4 0  9997
2    11  32.8754  74.2573 1468808 217.9016 130.8693 11.85622668570582
Epoch (UTC): 25 May 2019 20:34:04
Eccentricity: 0.1468808
inclination: 32.8754°
perigee height: 552 km
apogee height: 2939 km
right ascension of ascending node: 74.2573°
argument of perigee: 217.9016°
revolutions per day: 11.85622668
mean anomaly at epoch: 130.8693°
orbit number at epoch: 57058

The dashed part of the orbit path shows where the satellite is in the earth's shadow,  

DLR